Flag for Kazakhstan Weather past 2 weeks in Almaty, Kazakhstan

Now
46 °F

Sprinkles. Mostly cloudy.


Feels Like: 42 °F
Forecast: 32 / 49 °F
Wind: 8 mph from South

Location: Almaty Airport

Current Time: Mar 29, 2015 at 12:39:10 AM

Latest Report: Mar 29, 2015 at 12:00 AM


Visibility: N/A

Pressure: 30.01 "Hg

Humidity: 71%

Dew point: 37 °F

Location of AlmatyLocation

Historic Weather in Almaty — Graph

°F

Almaty temperature yesterday

Maximum temperature yesterday: 57 °F (at 2:00 PM)
Minimum temperature yesterday: 43 °F (at 5:30 AM)
Average temperature yesterday: 49 °F

Past Weeks' High & Low Weather Summary

 TemperatureHumidityPressure
High75 °F (Mar 23, 3:30 PM)93% (Mar 16, 5:00 AM)30.57 "Hg (Mar 16, 5:00 AM)
Low25 °F (Mar 14, 5:00 AM)14% (Mar 23, 3:30 PM)29.50 "Hg (Mar 24, 7:30 AM)
Average44 °F62%30.17 "Hg
* Reported Mar 13 11:30 PM — Mar 28 11:30 PM, Almaty, Weather by CustomWeather, © 2015

Note: Actual official high and low records may vary slightly from our data, if they occured in-between our weather recording intervals... More about our weather records

Advertising

Almaty weather history for previous 24 hours

 ConditionsComfort  
Time TempWeatherWind HumidityBarometerVisibility
11:30 PM
Sat, Mar 28
46 °FSprinkles. Mostly cloudy.8 mph71%30.01 "HgN/A
11:00 PM46 °FSprinkles. Mostly cloudy.8 mph71%30.01 "HgN/A
10:30 PM46 °FSprinkles. Fog.8 mph76%30.01 "Hg3 mi
10:00 PM46 °FSprinkles. Fog.8 mph82%30.01 "Hg3 mi
9:30 PM46 °FSprinkles. Fog.8 mph87%30.01 "Hg2 mi
9:00 PM48 °FSprinkles. Fog.8 mph76%30.01 "Hg2 mi
8:30 PM48 °FSprinkles. Fog.6 mph76%30.01 "Hg2 mi
8:00 PM48 °FSprinkles. Fog.6 mph76%30.01 "Hg3 mi
7:30 PM50 °FSprinkles. Mostly cloudy.3 mph62%30.01 "HgN/A
7:00 PM50 °FSprinkles. Mostly cloudy.6 mph71%30.01 "HgN/A
6:30 PM50 °FSprinkles. Mostly cloudy.6 mph71%30.01 "HgN/A
6:00 PM52 °FMostly cloudy.6 mph58%30.01 "HgN/A
5:30 PM54 °FMostly cloudy.1 mph47%30.01 "HgN/A
5:00 PM54 °FMostly cloudy.1 mph51%30.01 "HgN/A
4:30 PM55 °FPartly sunny.3 mph41%30.01 "HgN/A
4:00 PM55 °FPartly sunny.6 mph44%30.01 "HgN/A
3:30 PM55 °FPartly sunny.3 mph41%30.01 "HgN/A
3:00 PM55 °FPartly sunny.6 mph47%30.01 "HgN/A
2:30 PM54 °FBroken clouds.6 mph47%30.04 "HgN/A
2:00 PM57 °FBroken clouds.6 mph39%30.04 "HgN/A
1:30 PM55 °FBroken clouds.8 mph44%30.07 "HgN/A
1:00 PM55 °FBroken clouds.6 mph44%30.07 "HgN/A
12:30 PM54 °FBroken clouds.6 mph51%30.07 "HgN/A
12:00 PM54 °FBroken clouds.6 mph51%30.07 "HgN/A
11:30 AM52 °FBroken clouds.6 mph54%30.09 "HgN/A
11:00 AM50 °FBroken clouds.6 mph62%30.09 "HgN/A
10:30 AM50 °FBroken clouds.3 mph62%30.12 "HgN/A
9:30 AM46 °FMostly cloudy.1 mph82%30.12 "HgN/A
9:00 AM45 °FMostly cloudy.1 mph81%30.15 "HgN/A
8:30 AM43 °FMore clouds than sun.3 mph87%30.15 "HgN/A
8:00 AM43 °FBroken clouds.1 mph87%30.15 "HgN/A
7:30 AM43 °FBroken clouds.1 mph81%30.15 "HgN/A
7:00 AM43 °FMostly cloudy.3 mph81%30.15 "HgN/A
6:30 AM45 °FSprinkles. Mostly cloudy.6 mph76%30.15 "HgN/A
6:00 AM45 °FSprinkles. Mostly cloudy.8 mph76%30.15 "HgN/A
5:30 AM43 °FSprinkles. Mostly cloudy.8 mph81%30.18 "HgN/A
5:00 AM45 °FMostly cloudy.8 mph76%30.18 "HgN/A
4:30 AM45 °FSprinkles. Overcast.10 mph76%30.18 "HgN/A
4:00 AM45 °FSprinkles. Overcast.8 mph76%30.21 "HgN/A
3:30 AM45 °FSprinkles. Overcast.8 mph76%30.21 "HgN/A
3:00 AM45 °FSprinkles. Overcast.10 mph76%30.21 "HgN/A
2:30 AM45 °FSprinkles. Overcast.10 mph81%30.21 "HgN/A
2:00 AM46 °FSprinkles. Fog.15 mph71%30.24 "Hg3 mi
1:30 AM46 °FSprinkles. Fog.10 mph82%30.21 "Hg3 mi
1:00 AM46 °FSprinkles. Fog.8 mph87%30.21 "Hg3 mi
12:30 AM46 °FSprinkles. Fog.8 mph82%30.21 "Hg3 mi
12:00 AM48 °FSprinkles. Overcast.6 mph76%30.21 "HgN/A
Weather by CustomWeather, © 2015

See weather overviewHow to use our weather pages